{"data":{"norad_id":56705,"intl_designator":"2023-067T","name":"STARLINK-30080","alt_names":[],"object_type":"PAYLOAD","status":"ACTIVE","operator":null,"country":"US","launch_date":"2023-05-19","launch_site_code":"AFETR","launch_vehicle":null,"mission":null,"orbit_class":"UNKNOWN","rcs_meters":null,"size_class":null,"mass_kg":null,"dimensions":null,"purposes":["comms"],"wikipedia_slug":null,"has_3d_model":false,"image_url":null,"decayed_at":null,"tle_current":{"epoch":"2026-05-25T03:16:35.124096Z","epoch_age_seconds":73368,"freshness":"FRESH","line1":"1 56705U 23067T   26145.13651764  .00000407  00000+0  24328-4 0  9995","line2":"2 56705  43.0007 191.3246 0001559 275.8425  84.2249 15.27576901167486","mean_motion":15.27576901,"eccentricity":0.0001559,"inclination_deg":43.0007,"raan_deg":191.3246,"arg_perigee_deg":275.8425,"mean_anomaly_deg":84.2249,"bstar":2.4328e-5,"rev_number":16748,"period_min":94.266939952897,"perigee_km":481.98871521715,"apogee_km":484.12803593525,"semimajor_km":6861.1953755762,"source":"CELESTRAK","updated_at":"2026-05-25T13:38:18.122371Z"}}}